Regional Weather Roundup
Issued by NWS New Orleans/Baton Rouge, LA

Home | Current Version | Previous Version | Graphics & Text | Print | Product List | Glossary On
Versions: 1 2 3 4 5 6 7 8 9 10 11 12 13 14 15 16 17 18 19 20 21 22 23 24 25 26 27 28 29 30 31 32 33 34 35 36 37 38 39 40 41 42 43 44 45 46 47 48 49 50
736
ASUS44 KLIX 241710
RWRLIX
NEW ORLEANS REGIONAL WEATHER ROUNDUP
NATIONAL WEATHER SERVICE NEW ORLEANS LA
1200 PM CDT THU JUL 24 2014

NOTE: "FAIR" INDICATES FEW OR NO CLOUDS BELOW 12,000 FEET WITH NO
      SIGNIFICANT WEATHER AND/OR OBSTRUCTIONS TO VISIBILITY.
      SKY/WX - SKY CONDITION AND SIGNIFICANT WEATHER.
      TMP - AIR TEMPERATURE.     DP    - DEWPOINT TEMPERATURE.
      RH  - RELATIVE HUMIDITY.   PRES  - PRESSURE.
      HI  - HEAT INDEX.          WCI   - WIND CHILL INDEX.

*  THESE STATIONS ARE NOT NWS OR FAA STATIONS AND ARE NOT UNDER
   NWS QUALITY CONTROL.

LAZ038-040-048-061>063-065>067-069-241800-
SOUTHEAST LOUISIANA

CITY           SKY/WX    TMP DP  RH WIND       PRES   REMARKS
N.O. AUDUBON     N/A     90  74  58 MISG        N/A  HX  99
N.O. INTL ARPT PTSUNNY   85  73  67 VRB3      30.00F
N.O. LAKEFRONT MOSUNNY   85  74  69 N3        30.02S
N.O. DOWNTOWN* CLOUDY    84  72  65 NE6       30.01F
SLIDELL        LGT RAIN  84  75  74 NE3       30.01S
BATON ROUGE    PTSUNNY   87  72  60 N3        30.01S
BOOTHVILLE     NOT AVBL
BELLE CHASSE   PTSUNNY   86  72  62 E6        30.00F
BOGALUSA*        N/A     88  69  54 CALM      30.03S
GALLIANO*      NOT AVBL
NEW ROADS*     PTSUNNY   83  75  75 N3        30.02S
GONZALES*        N/A     85  72  64 E3        30.00F
HAMMOND*       MOSUNNY   86  70  58 CALM      30.02F
HOUMA*         MOSUNNY   84  70  61 CALM      30.01R
PORT FOURCHON* PTSUNNY   77  72  83 W14G21    30.05R

$$

MSZ070-080>082-241800-
SOUTHERN MISSISSIPPI

CITY           SKY/WX    TMP DP  RH WIND       PRES   REMARKS
MCCOMB         MOSUNNY   87  71  58 CALM      30.02F
GULFPORT       MOSUNNY   86  73  65 VRB3      30.01F
BILOXI         MOSUNNY   85  73  68 SW7       30.02F
PASCAGOULA     CLOUDY    84  74  71 VRB3      30.02S
STENNIS ARPT*  MOSUNNY  N/A N/A N/A CALM      30.02F

$$

COASTAL OBSERVATIONS
LAKE AND NEARSHORE STATIONS

STATION/POSITION TIME  TEMP    WIND        PRES    WAVE
                       AIR SEA DIR/SP/G            HT/PER
                 (UTC) (F)     (DEG/KT/KT) (MB)    (FT/S)
WAVELAND YACHT   1700   80     160/  8/  9 1016.0
GRAND ISLE       1700   80     320/  4/  5 1017.2
SOUTHWEST PASS   1700   80     270/  9/ 11 1017.2
NEW CANAL        1700   82      10/  4/  5 1016.7
SHELL BEACH      1700   81     120/  4/  6 1016.3

OFFSHORE STATIONS

STATION/POSITION TIME  TEMP    WIND        PRES    WAVE
                       AIR SEA DIR/SP/G            HT/PER
                 (UTC) (F)     (DEG/KT/KT) (MB)    (FT/S)
64 S DAUPHIN ISL 1648   79 85  260/ 17/ 21 1017.3

$$




USA.gov is the U.S. government's official web portal to all federal, state and local government web resources and services.